Navigation: Drive List Submit Your Drive Statistics Feedback Help Privacy About
 
This list is created by those who submitted their information to this page. You cannot expect 100% accuracy, but if there's many entries of the same drive chances are the majority is correct. If the drive you want to submit is already in the list, don't hasitate to submit since you are only confirming that the particular drive work/doesn't work. Recommended screen resolution: 1024x768 or higher.

In the beginning I only included the entries from the xbox-scene forum thread that had a valid model number, or where the model number could be guessed. I have skipped a lot of WD 120GB and Maxtor drives because they didn't provide the model number.

2005-11-18: If you accidentally locked a drive with a wrong password or lost the matching Xbox eeprom to unlock the drive, there's now a new service online that will allow you (for a small fee) to force unlock the hard drive and return it back to normal state. Most of the hard drives from Maxtor, Western Digital, Seagate and Samsung is supported. If you you're serious about getting your data back or the drive working again, you should take a look AFF Repair Station.

2006-05-28: It's been a while since the last news update. Whenever I see a bug or error I update the codebase, and in the last month I've fixed some submission errors, edit auth faults and recently made the sorting and filtering system the way it should be. There is still a problem with invalid submissions in the database and I encourage you to report them so I can remove the entries. Thanks to those who've submitted to the database.

-

Total entries: 3201 Locking: 2476 (77%)
Not locking: 725 (22%)
Most lockable brand: Western Digital
Most lockable drive serie: WD Caviar Blue
Most lockable drive: Seagate ST3200822A
Most popular lockable drive size: 120 GB
Most popular lockable drive speed: 7200 RPM
Most popular locking program: ConfigMagic
Search bar Show all
Added Brand Model no. Size RPM Buffer Locking Program XBOX Posted by Comment #
151. 2005-08-27 Maxtor 6L120PO 120 GB 7200 8 MB Yes HDLock Unk. johnnyb52 None 0
152. 2005-11-20 Diamond (Maxtor Generic) 6L160P0 160 GB 7200 N/A Yes xboxHdm... v1.0 bujuOne None 1
153. 2008-07-23 Diamond (Maxtor Generic) 6L160P0 160 GB 7200 8 MB Yes xboxhmd... v1.6 silenthoov... Formatte... 0
154. 2005-11-19 Maxtor 6L160P0 160 GB 7200 8 MB No xboxhdm... v1.1 AzrAeL tried to... 0
155. 2005-12-04 Maxtor 6L160P0 160 GB 7200 8 MB Yes UnlockX... Unk. Tsjibbe None 0
156. 2006-01-05 Maxtor 6L160P0 160 GB 7200 8 MB Yes xboxhdm... v1.6 Buggyglint... Works Gr... 2
157. 2006-02-06 Maxtor 6L160P0 160 GB 7200 8 MB Yes HDD mak... Unk. KariSmatiK... None 0
158. 2006-04-18 Maxtor 6L160P0 160 GB 7200 8 MB Yes XboxHDM... v1.4 Rom182 None 0
159. 2006-06-01 Maxtor 6L160P0 160 GB 7200 N/A No xboxhdm... v1.6 tigger282 None 0
160. 2006-07-15 Maxtor 6L160P0 160 GB 7200 8 MB Yes Xbox Unk. Mario666 None 0
161. 2006-08-28 Maxtor 6L160P0 160 GB 7200 8 MB Yes xboxhdm... v1.5 steve None 0
162. 2007-04-08 MAXTOR 6L160P0 160 GB 7200 N/A No xboxhdm... Unk. Sonik None 0
163. 2008-02-24 MAXTOR 6L160P0 160 GB 7200 8 MB Yes dont kn... Unk. bill xbox pow... 0
164. 2010-02-13 Maxtor 6L160P0 160 GB 7200 N/A Yes XBOXHDM... v1.2 jmoonz Locked w... 0
165. 2014-07-17 Maxtor 6L160P0 160 GB 7200 8 MB Yes Chimp 2... v1.0 ricbox Cloned H... 0
166. 2006-02-14 Maxtor 6L160PO 160 GB 7200 8 MB Yes HDD Mak... v1.3 DasReich This is ... 0
167. 2006-05-17 Maxtor 6L160ROA51601 160 GB 7200 16 MB Yes X3CE v1.6 dont No probl... 0
168. 2005-12-28 Diamond (Maxtor Generic) 6L200P0 200 GB 7200 8 MB Yes x3 conf... v1.6b ndsbass ata 133,... 0
169. 2005-07-25 Maxtor 6L200P0 200 GB 7200 8 MB Yes Xboxhdm... v1.6 DSS This is ... 0
170. 2005-07-28 Maxtor 6L200P0 200 GB 7200 8 MB Yes SmartXX... v1.2 nige None 0
171. 2005-08-05 Maxtor 6L200P0 200 GB 7200 8 MB Yes Evox 39... v1.1 Aidy Installe... 0
172. 2005-10-22 Maxtor 6L200P0 200 GB 7200 8 MB Yes X3 Conf... v1.6 Puffinz Easy to ... 0
173. 2005-11-22 Maxtor 6L200P0 200 GB 7200 N/A Yes ConfigM... v1.0 Wolf None 0
174. 2005-11-26 Maxtor 6L200P0 200 GB 7200 8 MB Yes xboxhdm... v1.6b MetaCortex... I'm a so... 0
175. 2006-02-15 Maxtor 6L200P0 200 GB 7200 8 MB Yes Unleash... v1.0 rabadsan None 0
176. 2006-02-28 Maxtor 6L200P0 200 GB 7200 8 MB Yes XboxHDM... v1.1 DarkPrime Works li... 0
177. 2006-03-09 Maxtor 6L200P0 200 GB 7200 8 MB No x3 conf... v1.0 Robocon loaded b... 0
178. 2006-09-18 Maxtor 6L200P0 200 GB 7200 8 MB Yes ConfigM... v1.0 crapoid685... None 0
179. 2007-01-13 Maxtor 6L200P0 200 GB 7200 8 MB Yes Unleash... v1.4 Sensei None 0
180. 2016-02-17 MAXTOR 6L200P0 200 GB 7200 8 MB Yes CHIMP v1.6 Obscene Worked F... 0
181. 2017-08-29 Maxtor 6L200P0 200 GB 7200 N/A Yes chimp26... v1.1 profrank this dri... 0
182. 2006-10-19 MAXTOR 6L200P0041L11 200 GB 7200 8 MB Yes xboxhd v1.0 na none 0
183. 2005-12-13 Maxtor 6L200PO 200 GB 7200 8 MB Yes xboxhdm... v1.6 LACHERY JO... BONJOUR ... 0
184. 2006-02-19 Maxtor 6L200PO 200 GB 7200 8 MB Yes ConfigM... v1.4 Deltaarmst... No Probl... 0
185. 2006-10-12 Maxtor 6L200PO 200 GB 7200 8 MB Yes X3 3.0.... v1.0 Guber-X None 0
186. 2005-06-14 Maxtor 6L200R0 200 GB 7200 8 MB Yes xboxhdm... v1.6b pirate252 Works fl... 0
187. 2005-09-05 Maxtor 6L200R0 200 GB 7200 16 MB Yes Xbox Me... v1.4 SliceN Works fl... 0
188. 2006-04-19 Maxtor 6L200R0 200 GB 7200 16 MB Yes xboxhdm... v1.6 azndoodle Works gr... 0
189. 2006-07-15 Maxtor 6L200R0 200 GB 7200 16 MB Yes Xboxhdm... v1.0 Elton Works gr... 0
190. 2006-01-16 Maxtor 6L200RO 200 GB 7200 16 MB Yes Evoluti... v1.6b PALNTSC None 0
191. 2005-09-19 Maxtor 6L250R0 250 GB 7200 16 MB Yes Config ... v1.4 Silsila Locks an... 0
192. 2005-11-01 Maxtor 6L250R0 250 GB 7200 16 MB Yes SLAYER v1.6 dewalty None 0
193. 2005-11-12 Maxtor 6L250R0 250 GB 7200 16 MB Yes EvoX So... v1.6 ^GalaX^ Fast, si... 0
194. 2005-12-02 Maxtor 6L250R0 250 GB 7200 16 MB Yes Config ... v1.2 Marocco It tooks... 2
195. 2005-12-27 Maxtor 6L250R0 250 GB 7200 16 MB Yes xboxhdm... v1.0 RepZ works pe... 0
196. 2006-02-13 Maxtor 6L250R0 250 GB 7200 16 MB Yes XeniumO... v1.6 johnnyrico... works pe... 1
197. 2006-02-25 Maxtor 6L250R0 250 GB 7200 16 MB No Tried M... v1.6 Maertz Evox And... 0
198. 2006-03-17 Maxtor 6L250R0 250 GB 7200 16 MB No Tried m... v1.6 TropiX Evox And... 1
199. 2006-03-27 Maxtor 6L250R0 250 GB 7200 16 MB No xboxhdm... v1.1 Kifr Unable t... 1
200. 2006-04-08 Maxtor 6L250R0 250 GB 7200 16 MB Yes xboxhdm... v1.6 guyman2006... Have don... 0
 Page 4 of 43 Entries returned: 2131   << First < Previous 1 2 3 4 5 6 7 8 9 Next > Last >> 
 
  • Click on the particular brand, model number, size or status to filter out all drives that has the same data.
  • Sort the columns by clicking on the labels on the top grey bar, a second click descends the list.
  • Use the search bar to make specific searches, i.e. show all Seagate disks that's 120 GB and has 8 MB cache.
 


Submit your hard drive

Read this before you post
 
Brand
Other brand:
Model number
Model name / serie
Drive size GB
RPM
Other RPM:
Buffersize (in MB) MB (0.1/0.2/0.5/1/2/8/16 MB)
Firmware version
Manufacture date YYYY-MM-DD
Lockable
Program(s)
XBOX version
Your name/nick
Your e-mail
Show e-mail publicly
Verification code Code:
Additional comments / Error messages / Problems
* BOLD = Required